TimeEST,TemperatureF,Dew PointF,Humidity,Sea Level PressureIn,VisibilityMPH,Wind Direction,Wind SpeedMPH,Gust SpeedMPH,PrecipitationIn,Events,Conditions,WindDirDegrees,DateUTC
12:53 AM,21.0,10.9,65,30.32,10.0,Calm,Calm,-,N/A,,Clear,0,2014-01-01 05:53:00
1:53 AM,19.9,12.9,74,30.33,10.0,Calm,Calm,-,N/A,,Clear,0,2014-01-01 06:53:00
2:53 AM,19.9,12.9,74,30.36,10.0,Calm,Calm,-,N/A,,Mostly Cloudy,0,2014-01-01 07:53:00
3:53 AM,19.9,12.9,74,30.36,9.0,Calm,Calm,-,N/A,,Mostly Cloudy,0,2014-01-01 08:53:00
4:53 AM,23.0,16.0,74,30.35,8.0,Calm,Calm,-,N/A,,Overcast,0,2014-01-01 09:53:00
5:53 AM,23.0,17.1,78,30.36,9.0,Calm,Calm,-,N/A,,Overcast,0,2014-01-01 10:53:00
6:53 AM,21.9,17.1,82,30.38,8.0,Calm,Calm,-,N/A,,Clear,0,2014-01-01 11:53:00
7:53 AM,23.0,18.0,81,30.38,7.0,Calm,Calm,-,N/A,,Clear,0,2014-01-01 12:53:00
8:53 AM,25.0,19.0,78,30.39,5.0,Calm,Calm,-,N/A,,Haze,0,2014-01-01 13:53:00
9:53 AM,27.0,19.9,75,30.40,7.0,Calm,Calm,-,N/A,,Clear,0,2014-01-01 14:53:00
10:53 AM,28.9,19.9,69,30.40,9.0,Calm,Calm,-,N/A,,Clear,0,2014-01-01 15:53:00
11:53 AM,30.9,19.9,64,30.36,10.0,Calm,Calm,-,N/A,,Clear,0,2014-01-01 16:53:00
12:53 PM,33.1,19.0,56,30.32,10.0,ENE,3.5,-,N/A,,Clear,60,2014-01-01 17:53:00
1:53 PM,35.1,19.0,52,30.30,10.0,SE,3.5,-,N/A,,Clear,130,2014-01-01 18:53:00
2:53 PM,34.0,21.9,61,30.29,9.0,NNE,8.1,-,N/A,,Scattered Clouds,20,2014-01-01 19:53:00
3:53 PM,34.0,21.9,61,30.28,10.0,NE,5.8,-,N/A,,Clear,50,2014-01-01 20:53:00
4:53 PM,32.0,23.0,69,30.27,10.0,East,4.6,-,N/A,,Clear,80,2014-01-01 21:53:00
5:53 PM,32.0,23.0,69,30.26,10.0,East,5.8,-,N/A,,Clear,80,2014-01-01 22:53:00
6:53 PM,32.0,24.1,73,30.26,10.0,ENE,5.8,-,N/A,,Clear,60,2014-01-01 23:53:00
7:53 PM,32.0,23.0,69,30.25,10.0,East,5.8,-,N/A,,Clear,80,2014-01-02 00:53:00
8:53 PM,30.9,23.0,72,30.22,9.0,East,4.6,-,N/A,,Clear,80,2014-01-02 01:53:00
9:53 PM,30.0,21.9,72,30.22,9.0,ENE,6.9,-,N/A,,Clear,70,2014-01-02 02:53:00
10:53 PM,30.0,21.9,72,30.20,9.0,East,8.1,-,N/A,,Clear,80,2014-01-02 03:53:00
11:53 PM,30.0,21.0,69,30.17,9.0,East,9.2,-,N/A,,Clear,80,2014-01-02 04:53:00